• In Deutschland
  • Länderverzeichnis
  • Für 7 Tage
  • Wassertemperatur
  • Satellitenkarten
  • Wetterkarte
  • Widgets
  • user-avatar
    Anmelden

    Stündliche Wetter Stadtlohn

    Heute, 21 Februar, Mittwoch

    Zeit Temperatur Niederschläge Wind Luftdruck Luftfeuchtigkeit
    00:00 -2°C° 0 mm 2 m/S 763 mmHg 80%
    01:00 -2°C° 0 mm 2 m/S 763 mmHg 80%
    02:00 -2°C° 0 mm 2 m/S 763 mmHg 80%
    03:00 -3°C° 0 mm 2 m/S 763 mmHg 80%
    04:00 -3°C° 0 mm 2 m/S 763 mmHg 80%
    05:00 -3°C° 0 mm 2 m/S 763 mmHg 80%
    06:00 -3°C° 0 mm 2 m/S 764 mmHg 83%
    07:00 -2°C° 0 mm 2 m/S 764 mmHg 77%
    08:00 -1°C° 0 mm 3 m/S 764 mmHg 72%
    09:00 0°C° 0 mm 3 m/S 764 mmHg 66%
    10:00 +1°C° 0 mm 3 m/S 764 mmHg 61%
    11:00 +2°C° 0 mm 3 m/S 763 mmHg 57%
    12:00 +2°C° 0 mm 3 m/S 764 mmHg 54%
    13:00 +2°C° 0 mm 3 m/S 763 mmHg 54%
    14:00 +3°C° 0 mm 3 m/S 763 mmHg 54%
    15:00 +3°C° 0 mm 4 m/S 763 mmHg 54%
    16:00 0°C° 0 mm 4 m/S 763 mmHg 60%
    17:00 0°C° 0 mm 3 m/S 763 mmHg 65%
    18:00 -1°C° 0 mm 3 m/S 763 mmHg 71%
    19:00 -1°C° 0 mm 3 m/S 763 mmHg 72%
    20:00 -2°C° 0 mm 3 m/S 763 mmHg 72%
    21:00 -2°C° 0 mm 3 m/S 764 mmHg 73%
    22:00 -2°C° 0 mm 3 m/S 764 mmHg 73%
    23:00 -2°C° 0 mm 3 m/S 764 mmHg 72%

    Morgen, 22 Februar, Donnerstag

    Zeit Temperatur Niederschläge Wind Luftdruck Luftfeuchtigkeit
    00:00 -2°C° 0 mm 3 m/S 764 mmHg 71%
    01:00 -2°C° 0 mm 3 m/S 764 mmHg 71%
    02:00 -2°C° 0 mm 3 m/S 764 mmHg 71%
    03:00 -2°C° 0 mm 3 m/S 764 mmHg 71%
    04:00 -2°C° 0 mm 3 m/S 764 mmHg 72%
    05:00 -4°C° 0 mm 3 m/S 764 mmHg 73%
    06:00 -4°C° 0 mm 3 m/S 764 mmHg 74%
    07:00 -3°C° 0 mm 4 m/S 764 mmHg 70%
    08:00 -2°C° 0 mm 4 m/S 764 mmHg 65%
    09:00 -1°C° 0 mm 4 m/S 764 mmHg 61%
    10:00 0°C° 0 mm 5 m/S 764 mmHg 57%
    11:00 +1°C° 0 mm 5 m/S 764 mmHg 52%
    12:00 +2°C° 0 mm 5 m/S 763 mmHg 48%
    13:00 +2°C° 0 mm 5 m/S 763 mmHg 49%
    14:00 +2°C° 0 mm 5 m/S 763 mmHg 49%
    15:00 +2°C° 0 mm 5 m/S 762 mmHg 50%
    16:00 +1°C° 0 mm 5 m/S 762 mmHg 57%
    17:00 0°C° 0 mm 4 m/S 763 mmHg 63%
    18:00 -1°C° 0 mm 4 m/S 763 mmHg 70%
    19:00 -1°C° 0 mm 3 m/S 763 mmHg 73%
    20:00 -1°C° 0 mm 3 m/S 763 mmHg 76%
    21:00 -2°C° 0 mm 3 m/S 763 mmHg 79%
    22:00 -2°C° 0 mm 3 m/S 763 mmHg 80%
    23:00 -2°C° 0 mm 3 m/S 763 mmHg 80%

    übermorgen, 23 Februar, Freitag

    Zeit Temperatur Niederschläge Wind Luftdruck Luftfeuchtigkeit
    00:00 -2°C° 0 mm 3 m/S 763 mmHg 80%
    01:00 -2°C° 0 mm 3 m/S 763 mmHg 78%
    02:00 -4°C° 0 mm 3 m/S 763 mmHg 76%
    03:00 -4°C° 0 mm 3 m/S 762 mmHg 74%
    04:00 -4°C° 0 mm 4 m/S 762 mmHg 71%
    05:00 -4°C° 0 mm 4 m/S 763 mmHg 68%
    06:00 -4°C° 0 mm 4 m/S 763 mmHg 65%
    07:00 -4°C° 0 mm 5 m/S 763 mmHg 58%
    08:00 -4°C° 0 mm 5 m/S 763 mmHg 51%
    09:00 -3°C° 0 mm 6 m/S 763 mmHg 44%
    10:00 -2°C° 0 mm 6 m/S 763 mmHg 39%
    11:00 -1°C° 0 mm 6 m/S 762 mmHg 34%
    12:00 -1°C° 0 mm 6 m/S 762 mmHg 29%
    13:00 +1°C° 0 mm 6 m/S 762 mmHg 29%
    14:00 +1°C° 0 mm 6 m/S 762 mmHg 28%
    15:00 +1°C° 0 mm 6 m/S 761 mmHg 28%
    16:00 -1°C° 0 mm 6 m/S 762 mmHg 30%
    17:00 -2°C° 0 mm 6 m/S 762 mmHg 33%
    18:00 -2°C° 0 mm 5 m/S 762 mmHg 36%
    19:00 -4°C° 0 mm 6 m/S 762 mmHg 36%
    20:00 -4°C° 0 mm 6 m/S 762 mmHg 37%
    21:00 -4°C° 0 mm 6 m/S 763 mmHg 37%
    22:00 -4°C° 0 mm 6 m/S 763 mmHg 37%
    23:00 -4°C° 0 mm 6 m/S 763 mmHg 37%

    24 Februar, Samstag

    Zeit Temperatur Niederschläge Wind Luftdruck Luftfeuchtigkeit
    00:00 -5°C° 0 mm 6 m/S 763 mmHg 37%
    01:00 -5°C° 0 mm 6 m/S 763 mmHg 37%
    02:00 -5°C° 0 mm 6 m/S 763 mmHg 38%
    03:00 -5°C° 0 mm 6 m/S 763 mmHg 38%
    04:00 -6°C° 0 mm 7 m/S 763 mmHg 40%
    05:00 -6°C° 0 mm 7 m/S 763 mmHg 41%
    06:00 -4°C° 0 mm 7 m/S 763 mmHg 43%
    07:00 -4°C° 0 mm 7 m/S 763 mmHg 45%
    08:00 -4°C° 0 mm 8 m/S 763 mmHg 46%
    09:00 -2°C° 0 mm 8 m/S 764 mmHg 47%
    10:00 -1°C° 0 mm 8 m/S 764 mmHg 46%
    11:00 -1°C° 0 mm 8 m/S 764 mmHg 45%
    12:00 0°C° 0 mm 8 m/S 763 mmHg 44%
    13:00 0°C° 0 mm 8 m/S 763 mmHg 44%
    14:00 0°C° 0 mm 8 m/S 763 mmHg 43%
    15:00 0°C° 0 mm 8 m/S 763 mmHg 43%
    16:00 -1°C° 0 mm 8 m/S 763 mmHg 43%
    17:00 -2°C° 0 mm 8 m/S 764 mmHg 42%
    18:00 -4°C° 0 mm 8 m/S 764 mmHg 42%
    19:00 -4°C° 0 mm 7 m/S 765 mmHg 41%
    20:00 -4°C° 0 mm 7 m/S 765 mmHg 41%
    21:00 -6°C° 0 mm 7 m/S 765 mmHg 40%
    22:00 -6°C° 0 mm 7 m/S 765 mmHg 42%
    23:00 -6°C° 0 mm 7 m/S 766 mmHg 43%

    25 Februar, Sonntag

    Zeit Temperatur Niederschläge Wind Luftdruck Luftfeuchtigkeit
    00:00 -6°C° 0 mm 7 m/S 766 mmHg 44%
    01:00 -7°C° 0 mm 7 m/S 766 mmHg 45%
    02:00 -7°C° 0 mm 7 m/S 766 mmHg 45%
    03:00 -7°C° 0 mm 7 m/S 766 mmHg 46%
    04:00 -7°C° 0 mm 7 m/S 766 mmHg 44%
    05:00 -8°C° 0 mm 7 m/S 766 mmHg 43%
    06:00 -8°C° 0 mm 7 m/S 766 mmHg 41%
    07:00 -8°C° 0 mm 7 m/S 767 mmHg 38%
    08:00 -7°C° 0 mm 7 m/S 767 mmHg 35%
    09:00 -7°C° 0 mm 7 m/S 767 mmHg 31%
    10:00 -6°C° 0 mm 7 m/S 767 mmHg 28%
    11:00 -4°C° 0 mm 7 m/S 767 mmHg 25%
    12:00 -4°C° 0 mm 7 m/S 767 mmHg 22%
    13:00 -4°C° 0 mm 7 m/S 766 mmHg 23%
    14:00 -4°C° 0 mm 7 m/S 766 mmHg 23%
    15:00 -4°C° 0 mm 7 m/S 766 mmHg 23%
    16:00 -4°C° 0 mm 6 m/S 766 mmHg 26%
    17:00 -5°C° 0 mm 5 m/S 766 mmHg 30%
    18:00 -6°C° 0 mm 5 m/S 767 mmHg 34%
    19:00 -6°C° 0 mm 5 m/S 767 mmHg 37%
    20:00 -6°C° 0 mm 5 m/S 767 mmHg 41%
    21:00 -6°C° 0 mm 5 m/S 767 mmHg 44%
    22:00 -6°C° 0 mm 5 m/S 767 mmHg 47%
    23:00 -6°C° 0 mm 5 m/S 767 mmHg 50%

    26 Februar, Montag

    Zeit Temperatur Niederschläge Wind Luftdruck Luftfeuchtigkeit
    00:00 -6°C° 0 mm 5 m/S 767 mmHg 54%
    01:00 -7°C° 0 mm 4 m/S 767 mmHg 55%
    02:00 -7°C° 0 mm 4 m/S 767 mmHg 57%
    03:00 -7°C° 0 mm 4 m/S 767 mmHg 59%
    04:00 -7°C° 0 mm 4 m/S 767 mmHg 60%
    05:00 -8°C° 0 mm 4 m/S 767 mmHg 60%
    06:00 -8°C° 0 mm 4 m/S 767 mmHg 61%
    07:00 -7°C° 0 mm 5 m/S 767 mmHg 57%
    08:00 -7°C° 0 mm 5 m/S 766 mmHg 53%
    09:00 -6°C° 0 mm 6 m/S 766 mmHg 49%
    10:00 -6°C° 0 mm 6 m/S 766 mmHg 45%
    11:00 -5°C° 0 mm 6 m/S 766 mmHg 41%
    12:00 -4°C° 0 mm 6 m/S 765 mmHg 36%
    13:00 -4°C° 0 mm 6 m/S 765 mmHg 36%
    14:00 -4°C° 0 mm 6 m/S 764 mmHg 35%
    15:00 -4°C° 0 mm 6 m/S 764 mmHg 34%
    16:00 -5°C° 0 mm 5 m/S 764 mmHg 38%
    17:00 -5°C° 0 mm 5 m/S 764 mmHg 41%
    18:00 -5°C° 0 mm 4 m/S 764 mmHg 45%
    19:00 -5°C° 0 mm 4 m/S 764 mmHg 48%
    20:00 -5°C° 0 mm 4 m/S 764 mmHg 51%
    21:00 -7°C° 0 mm 4 m/S 764 mmHg 54%
    22:00 -7°C° 0 mm 4 m/S 764 mmHg 55%
    23:00 -6°C° 0 mm 3 m/S 764 mmHg 56%
    Mehr zeigen